TimePDT,TemperatureF,Dew PointF,Humidity,Sea Level PressureIn,VisibilityMPH,Wind Direction,Wind SpeedMPH,Gust SpeedMPH,PrecipitationIn,Events,Conditions,WindDirDegrees,DateUTC
12:06 AM,51.8,50.0,94,30.15,7.0,WNW,5.8,-,N/A,,Overcast,290,2013-05-10 07:06:00
12:16 AM,51.8,50.0,94,30.15,7.0,West,4.6,-,N/A,,Mostly Cloudy,280,2013-05-10 07:16:00
12:39 AM,51.8,48.2,88,30.16,7.0,WNW,5.8,-,N/A,,Scattered Clouds,290,2013-05-10 07:39:00
12:51 AM,51.1,48.9,92,30.17,7.0,West,5.8,-,N/A,,Partly Cloudy,270,2013-05-10 07:51:00
1:51 AM,50.0,48.0,93,30.15,6.0,NW,4.6,-,N/A,,Partly Cloudy,320,2013-05-10 08:51:00
1:59 AM,51.8,48.2,88,30.14,7.0,NW,4.6,-,N/A,,Mostly Cloudy,310,2013-05-10 08:59:00
2:26 AM,51.8,48.2,88,30.13,7.0,Calm,Calm,-,N/A,,Scattered Clouds,0,2013-05-10 09:26:00
2:51 AM,52.0,48.9,89,30.13,8.0,Calm,Calm,-,N/A,,Clear,0,2013-05-10 09:51:00
3:08 AM,51.8,48.2,88,30.13,7.0,Calm,Calm,-,N/A,,Scattered Clouds,0,2013-05-10 10:08:00
3:17 AM,51.8,48.2,88,30.13,8.0,Calm,Calm,-,N/A,,Mostly Cloudy,0,2013-05-10 10:17:00
3:51 AM,52.0,50.0,93,30.14,7.0,Calm,Calm,-,N/A,,Overcast,0,2013-05-10 10:51:00
4:30 AM,51.8,48.2,88,30.12,7.0,North,4.6,-,N/A,,Scattered Clouds,360,2013-05-10 11:30:00
4:51 AM,50.0,48.0,93,30.12,6.0,NW,3.5,-,N/A,,Partly Cloudy,310,2013-05-10 11:51:00
5:05 AM,50.0,48.2,94,30.11,5.0,NW,3.5,-,N/A,,Mostly Cloudy,310,2013-05-10 12:05:00
5:51 AM,48.9,46.9,93,30.12,3.0,Calm,Calm,-,N/A,,Mostly Cloudy,0,2013-05-10 12:51:00
6:24 AM,51.8,50.0,94,30.11,3.0,NNW,3.5,-,N/A,,Overcast,330,2013-05-10 13:24:00
6:51 AM,53.1,51.1,93,30.13,3.0,WNW,4.6,-,N/A,,Overcast,300,2013-05-10 13:51:00
7:51 AM,54.0,52.0,93,30.14,2.5,NW,4.6,-,N/A,,Overcast,310,2013-05-10 14:51:00
8:47 AM,57.2,51.8,82,30.14,2.5,WNW,4.6,-,N/A,,Haze,300,2013-05-10 15:47:00
8:51 AM,57.9,53.1,84,30.14,2.5,NNW,5.8,-,N/A,,Haze,340,2013-05-10 15:51:00
8:58 AM,57.2,53.6,88,30.14,6.0,NW,4.6,-,N/A,,Haze,320,2013-05-10 15:58:00
9:07 AM,60.8,53.6,77,30.14,7.0,Variable,4.6,-,N/A,,Scattered Clouds,0,2013-05-10 16:07:00
9:51 AM,64.0,53.1,67,30.15,10.0,NW,11.5,-,N/A,,Clear,320,2013-05-10 16:51:00
10:51 AM,66.0,53.1,63,30.14,10.0,NNW,11.5,-,N/A,,Clear,330,2013-05-10 17:51:00
11:51 AM,70.0,54.0,57,30.12,10.0,NW,10.4,-,N/A,,Clear,310,2013-05-10 18:51:00
12:51 PM,70.0,53.1,55,30.12,10.0,NW,15.0,25.3,N/A,,Clear,320,2013-05-10 19:51:00
1:51 PM,68.0,53.1,59,30.12,9.0,NW,17.3,-,N/A,,Clear,310,2013-05-10 20:51:00
2:51 PM,66.9,52.0,59,30.11,10.0,NW,15.0,23.0,N/A,,Clear,310,2013-05-10 21:51:00
3:51 PM,66.0,52.0,60,30.09,10.0,WNW,20.7,26.5,N/A,,Clear,290,2013-05-10 22:51:00
4:51 PM,64.0,52.0,65,30.08,9.0,WNW,18.4,-,N/A,,Clear,300,2013-05-10 23:51:00
5:51 PM,61.0,52.0,72,30.09,10.0,WNW,17.3,-,N/A,,Clear,300,2013-05-11 00:51:00
6:51 PM,59.0,52.0,78,30.09,8.0,NNW,8.1,-,N/A,,Clear,330,2013-05-11 01:51:00
7:51 PM,55.0,51.1,86,30.11,6.0,NW,9.2,-,N/A,,Partly Cloudy,320,2013-05-11 02:51:00
8:51 PM,54.0,51.1,90,30.13,7.0,WNW,5.8,-,N/A,,Clear,290,2013-05-11 03:51:00
8:58 PM,53.6,51.8,94,30.11,6.0,WNW,5.8,-,N/A,,Partly Cloudy,300,2013-05-11 03:58:00
9:51 PM,54.0,51.1,90,30.13,6.0,Calm,Calm,-,N/A,,Clear,0,2013-05-11 04:51:00
10:51 PM,53.1,51.1,93,30.14,7.0,Calm,Calm,-,N/A,,Clear,0,2013-05-11 05:51:00
11:51 PM,54.0,51.1,90,30.13,7.0,Calm,Calm,-,N/A,,Clear,0,2013-05-11 06:51:00